| time (UTC) | temp C | wind direction | speed KPH | gust KPH | rain 1hr cm | rain 24hr cm | rain mn cm | humidity % | barometer mb |
| 20260505130103 | 13 | 0 | 0.0 | 4.8 | 0.00 | 0.00 | 0.00 | 80 | 1017.8 |
| 20260505124559 | 12 | 0 | 0.0 | 1.6 | 0.00 | 0.00 | 0.00 | 87 | 1017.6 |
| 20260505123101 | 10 | 0 | 0.0 | 1.6 | 0.00 | 0.00 | 0.00 | 92 | 1017.7 |
| 20260505121623 | 8 | 0 | 0.0 | 0.0 | 0.00 | 0.00 | 0.00 | 93 | 1017.6 |
| 20260505120055 | 8 | 0 | 0.0 | 1.6 | 0.00 | 0.00 | 0.00 | 93 | 1017.4 |
| 20260505114557 | 7 | 0 | 0.0 | 1.6 | 0.00 | 0.00 | 0.00 | 93 | 1017.4 |
| 20260505113103 | 7 | 0 | 0.0 | 0.0 | 0.00 | 0.00 | 0.00 | 93 | 1017.2 |
| 20260505111601 | 7 | 0 | 0.0 | 0.0 | 0.00 | 0.00 | 0.00 | 93 | 1017.1 |
| 20260505101600 | 7 | 0 | 0.0 | 0.0 | 0.00 | 0.00 | 0.00 | 93 | 1016.8 |
| 20260505100137 | 7 | 0 | 0.0 | 3.2 | 0.00 | 0.00 | 0.00 | 92 | 1016.8 |
| 20260505094556 | 7 | 0 | 0.0 | 0.0 | 0.00 | 0.00 | 0.00 | 93 | 1016.5 |
| 20260505093056 | 7 | 0 | 0.0 | 1.6 | 0.00 | 0.00 | 0.00 | 93 | 1016.5 |
| 20260505091616 | 7 | 0 | 0.0 | 0.0 | 0.00 | 0.00 | 0.00 | 92 | 1016.6 |
| 20260505084600 | 7 | 0 | 0.0 | 1.6 | 0.00 | 0.00 | 0.00 | 92 | 1016.3 |
| 20260505083056 | 7 | 0 | 0.0 | 0.0 | 0.00 | 0.00 | 0.00 | 92 | 1016.2 |
| 20260505081557 | 7 | 0 | 0.0 | 1.6 | 0.00 | 0.00 | 0.00 | 92 | 1016.1 |
| 20260505080058 | 8 | 0 | 0.0 | 1.6 | 0.00 | 0.00 | 0.00 | 91 | 1016.1 |
| 20260505074559 | 8 | 0 | 0.0 | 3.2 | 0.00 | 0.00 | 0.00 | 91 | 1016.1 |
| 20260505073102 | 8 | 0 | 0.0 | 0.0 | 0.00 | 0.00 | 0.00 | 91 | 1016.2 |
| 20260505071558 | 8 | 0 | 0.0 | 0.0 | 0.00 | 0.00 | 0.00 | 91 | 1016.3 |
| 20260505070104 | 8 | 0 | 0.0 | 0.0 | 0.00 | 0.00 | 0.00 | 91 | 1016.3 |
| 20260505064609 | 8 | 0 | 0.0 | 0.0 | 0.00 | 0.00 | 0.00 | 90 | 1016.3 |
| 20260505063059 | 8 | 0 | 0.0 | 0.0 | 0.00 | 0.00 | 0.00 | 90 | 1016.4 |
| 20260505061559 | 9 | 0 | 0.0 | 0.0 | 0.00 | 0.00 | 0.00 | 89 | 1016.6 |
| 20260505060059 | 9 | 0 | 0.0 | 0.0 | 0.00 | 0.00 | 0.00 | 88 | 1016.6 |
| 20260505054620 | 10 | 263 | 0.0 | 3.2 | 0.00 | 0.00 | 0.00 | 88 | 1016.6 |
| 20260505053101 | 10 | 0 | 0.0 | 0.0 | 0.00 | 0.00 | 0.00 | 88 | 1016.7 |
| 20260505051559 | 10 | 0 | 0.0 | 0.0 | 0.00 | 0.00 | 0.00 | 87 | 1016.7 |
| 20260505041610 | 11 | 0 | 0.0 | 0.0 | 0.00 | 0.00 | 0.00 | 85 | 1016.6 |
| 20260505040104 | 11 | 0 | 0.0 | 1.6 | 0.00 | 0.00 | 0.00 | 84 | 1016.6 |
| 20260505034600 | 11 | 0 | 0.0 | 1.6 | 0.00 | 0.00 | 0.00 | 84 | 1016.6 |
| 20260505033058 | 12 | 0 | 0.0 | 1.6 | 0.00 | 0.00 | 0.00 | 83 | 1016.8 |
| 20260505031604 | 12 | 0 | 0.0 | 3.2 | 0.00 | 0.00 | 0.00 | 82 | 1016.7 |
| 20260505030104 | 12 | 0 | 0.0 | 1.6 | 0.00 | 0.00 | 0.00 | 82 | 1016.7 |
| 20260505024618 | 13 | 0 | 0.0 | 1.6 | 0.00 | 0.00 | 0.00 | 81 | 1016.7 |
| 20260505023109 | 13 | 0 | 0.0 | 3.2 | 0.00 | 0.00 | 0.00 | 79 | 1016.9 |
| 20260505021600 | 13 | 0 | 0.0 | 1.6 | 0.00 | 0.00 | 0.00 | 78 | 1016.4 |
| 20260505020106 | 14 | 0 | 0.0 | 1.6 | 0.00 | 0.00 | 0.00 | 76 | 1016.4 |
| 20260505014558 | 15 | 0 | 0.0 | 1.6 | 0.00 | 0.00 | 0.00 | 74 | 1016.2 |
| 20260505013101 | 15 | 0 | 0.0 | 1.6 | 0.00 | 0.00 | 0.00 | 72 | 1016.3 |
| 20260505011600 | 16 | 261 | 0.0 | 1.6 | 0.00 | 0.00 | 0.00 | 72 | 1016.0 |
| 20260505010113 | 16 | 0 | 0.0 | 3.2 | 0.00 | 0.00 | 0.00 | 70 | 1016.0 |
| 20260505004600 | 16 | 0 | 0.0 | 0.0 | 0.00 | 0.00 | 0.00 | 69 | 1015.6 |
| 20260505003124 | 18 | 0 | 0.0 | 1.6 | 0.00 | 0.00 | 0.00 | 64 | 1015.7 |
| 20260505001558 | 18 | 0 | 0.0 | 1.6 | 0.00 | 0.00 | 0.00 | 63 | 1015.5 |
| 20260504234558 | 21 | 0 | 0.0 | 3.2 | 0.00 | 0.00 | 0.00 | 47 | 1015.4 |
| 20260504233109 | 22 | 0 | 0.0 | 4.8 | 0.00 | 0.00 | 0.00 | 46 | 1015.4 |
| 20260504231600 | 22 | 0 | 1.6 | 6.4 | 0.00 | 0.00 | 0.00 | 43 | 1015.3 |
| 20260504230115 | 22 | 173 | 1.6 | 6.4 | 0.00 | 0.00 | 0.00 | 43 | 1015.2 |
| 20260504224626 | 23 | 0 | 1.6 | 11.3 | 0.00 | 0.00 | 0.00 | 42 | 1015.3 |
| 20260504223110 | 23 | 190 | 3.2 | 11.3 | 0.00 | 0.00 | 0.00 | 41 | 1015.3 |
| 20260504221604 | 23 | 201 | 3.2 | 11.3 | 0.00 | 0.00 | 0.00 | 42 | 1015.4 |
| 20260504220109 | 23 | 153 | 1.6 | 12.9 | 0.00 | 0.00 | 0.00 | 42 | 1015.4 |
| 20260504214601 | 23 | 156 | 3.2 | 12.9 | 0.00 | 0.00 | 0.00 | 41 | 1015.5 |
| 20260504213103 | 23 | 157 | 4.8 | 14.5 | 0.00 | 0.00 | 0.00 | 40 | 1015.5 |
| 20260504211601 | 23 | 158 | 6.4 | 17.7 | 0.00 | 0.00 | 0.00 | 41 | 1015.4 |
| 20260504210104 | 24 | 143 | 4.8 | 14.5 | 0.00 | 0.00 | 0.00 | 40 | 1015.4 |
| 20260504204602 | 24 | 146 | 3.2 | 12.9 | 0.00 | 0.00 | 0.00 | 40 | 1015.4 |
| 20260504203057 | 24 | 160 | 3.2 | 12.9 | 0.00 | 0.00 | 0.00 | 38 | 1015.6 |
| 20260504201607 | 24 | 141 | 1.6 | 16.1 | 0.00 | 0.00 | 0.00 | 39 | 1015.5 |
| 20260504200103 | 25 | 159 | 4.8 | 16.1 | 0.00 | 0.00 | 0.00 | 40 | 1015.6 |
| 20260504194559 | 25 | 143 | 3.2 | 9.7 | 0.00 | 0.00 | 0.00 | 38 | 1015.6 |
| 20260504193055 | 25 | 160 | 3.2 | 11.3 | 0.00 | 0.00 | 0.00 | 38 | 1015.8 |
| 20260504191609 | 25 | 169 | 3.2 | 11.3 | 0.00 | 0.00 | 0.00 | 37 | 1016.0 |
| 20260504190056 | 25 | 188 | 4.8 | 19.3 | 0.00 | 0.00 | 0.00 | 38 | 1016.2 |
| 20260504184557 | 23 | 163 | 4.8 | 12.9 | 0.00 | 0.00 | 0.00 | 36 | 1016.6 |
| 20260504183054 | 23 | 254 | 4.8 | 14.5 | 0.00 | 0.00 | 0.00 | 36 | 1016.7 |
| 20260504181559 | 24 | 163 | 1.6 | 14.5 | 0.00 | 0.00 | 0.00 | 36 | 1016.9 |
| 20260504180057 | 24 | 185 | 0.0 | 17.7 | 0.00 | 0.00 | 0.00 | 39 | 1017.1 |
| 20260504174559 | 23 | 0 | 1.6 | 12.9 | 0.00 | 0.00 | 0.00 | 41 | 1017.2 |
| 20260504173056 | 23 | 194 | 0.0 | 9.7 | 0.00 | 0.00 | 0.00 | 38 | 1017.3 |
| 20260504171556 | 22 | 0 | 3.2 | 8.0 | 0.00 | 0.00 | 0.00 | 38 | 1017.3 |
| 20260504160105 | 20 | 0 | 3.2 | 9.7 | 0.00 | 0.00 | 0.00 | 40 | 1018.4 |